Regional Weather Roundup
Issued by NWS Goodland, KS

Home | Current Version | Previous Version | Text Only | Print | Product List | Glossary On
Versions: 1 2 3 4 5 6 7 8 9 10 11 12 13 14 15 16 17 18 19 20 21 22 23 24 25 26 27 28 29 30 31 32 33 34 35 36 37 38 39 40 41 42 43 44 45 46 47 48 49 50
000
ASUS43 KGLD 251908
RWRGLD

GOODLAND FORECAST AREA HOURLY WEATHER ROUNDUP
NATIONAL WEATHER SERVICE GOODLAND KS
100 PM MDT TUE APR 25 2017

...OFFICIAL OBSERVATIONS...

CITY           SKY/WX    TMP DP  RH WIND       PRES   REMARKS
GOODLAND KS    CLOUDY    58  42  55 VRB7      29.55S
HILL CITY KS   CLOUDY    58  44  60 NE16      29.53S
IMPERIAL NEB   CLOUDY    49  43  80 N13       29.59S
MCCOOK NEB     CLOUDY    50  43  77 N12       29.57R
AKRON CO       CLOUDY    51  31  46 SW5       29.58F
BURLINGTON CO  NOT AVBL
LIMON CO       MOSUNNY   56  32  40 E7        29.56F
$$

...UNOFFICIAL OBSERVATIONS...

CITY           SKY/WX    TMP DP  RH WIND       PRES   REMARKS
LENORA KS        N/A     53  32  45 MISG        N/A
NORTON KS      PTSUNNY   50  39  66 N15G21    29.54S
SHARON SPRINGS   N/A     56  45  66 N10         N/A
TRENTON NEB      N/A     48  32  54 NE8         N/A
KIT CARSON CO    N/A     57  39  51 MISG        N/A
YUMA CO        PTSUNNY   55  37  50 NW8       29.56F
$$



USA.gov is the U.S. government's official web portal to all federal, state and local government web resources and services.